Weather History for KD39 - January, 2013

Change the Weather History Date:

Thursday, January 3, 2013

  Actual Average (KGHW) Record (KGHW)
Temperature  
Mean Temperature 6 °F -  
Max Temperature 14 °F 21 °F 45 °F (1962)
Min Temperature -2 °F 1 °F -22 °F (1968)
Degree Days  
Heating Degree Days 59    
Moisture  
Dew Point 4 °F    
Average Humidity 83    
Maximum Humidity 92    
Minimum Humidity 73    
Precipitation  
Precipitation 0.00 in - - ()
Sea Level Pressure  
Sea Level Pressure 30.15 in    
Wind  
Wind Speed 11 mph (West)    
Max Wind Speed 17 mph    
Max Gust Speed 20 mph    
Visibility 10 miles    
Events Snow    
Averages and records for this station are not official NWS values.
T = Trace of Precipitation, MM = Missing Value Source: NWS Daily Summary

Daily Weather History Graph

Daily Weather History Graph

Search for Another Location

Airport or City:

Trip Planner

Search our weather history database for the weather conditions in past years. The results will help you decide how hot, cold, wet, or windy it might be!

Date:

Astronomy

Jan. 03, 2013 Rise Set
Actual Time 8:00 AM CST 4:48 PM CST
Civil Twilight 7:26 AM CST 5:22 PM CST
Nautical Twilight 6:48 AM CST 6:00 PM CST
Astronomical Twilight 6:12 AM CST 6:36 PM CST
Moon 11:47 PM CST (1/3) 10:52 AM CST (1/3)
Length of Visible Light 9h 56m
Length of Day
8h 47m
Waning Gibbous, 65% of the Moon is Illuminated
Jan 3
Waning Gibbous
Jan 4
Last Quarter
Jan 11
New
Jan 18
First Quarter
Jan 26
Full

Hourly Weather History & Observations

Time (CST) Temp. Windchill Dew Point Humidity Pressure Visibility Wind Dir Wind Speed Gust Speed Precip Events Conditions
12:15 AM 10.4 °F -4.8 °F 6.8 °F 85% 30.10 in 10.0 mi WNW 12.7 mph - N/A   Overcast
12:35 AM 10.4 °F -4.8 °F 6.8 °F 85% 30.11 in 10.0 mi NW 12.7 mph 19.6 mph N/A   Overcast
12:55 AM 10.4 °F -4.1 °F 5.0 °F 79% 30.11 in 10.0 mi NW 11.5 mph - N/A   Overcast
1:15 AM 10.4 °F -5.4 °F 5.0 °F 79% 30.11 in 10.0 mi WNW 13.8 mph - N/A   Overcast
1:35 AM 8.6 °F -7.0 °F 5.0 °F 85% 30.11 in 10.0 mi WNW 12.7 mph - N/A   Overcast
1:55 AM 8.6 °F -9.5 °F 5.0 °F 85% 30.13 in 10.0 mi WNW 17.3 mph - N/A   Overcast
2:15 AM 8.6 °F -7.0 °F 3.2 °F 79% 30.14 in 10.0 mi NW 12.7 mph - N/A   Overcast
2:35 AM 6.8 °F -11.3 °F 3.2 °F 85% 30.14 in 10.0 mi NW 16.1 mph - N/A   Overcast
2:55 AM 6.8 °F -10.0 °F 3.2 °F 85% 30.14 in 10.0 mi WNW 13.8 mph - N/A   Overcast
3:15 AM 5.0 °F -10.8 °F 1.4 °F 85% 30.15 in 10.0 mi WNW 11.5 mph - N/A Snow Light Snow
3:35 AM 5.0 °F -12.3 °F 1.4 °F 85% 30.16 in 10.0 mi NW 13.8 mph - N/A   Overcast
3:55 AM 5.0 °F -13.0 °F 1.4 °F 85% 30.17 in 10.0 mi NW 15.0 mph - N/A   Overcast
4:15 AM 5.0 °F -11.6 °F 1.4 °F 85% 30.17 in 10.0 mi NW 12.7 mph - N/A   Overcast
4:35 AM 5.0 °F -11.6 °F 1.4 °F 85% 30.17 in 10.0 mi NW 12.7 mph - N/A   Overcast
4:55 AM 5.0 °F -10.0 °F 1.4 °F 85% 30.18 in 10.0 mi WNW 10.4 mph - N/A   Overcast
5:15 AM 3.2 °F -13.1 °F 1.4 °F 92% 30.19 in 10.0 mi WNW 11.5 mph - N/A   Overcast
5:35 AM 3.2 °F -14.6 °F -0.4 °F 85% 30.20 in 10.0 mi WNW 13.8 mph - N/A   Overcast
5:55 AM 3.2 °F -13.1 °F -0.4 °F 85% 30.20 in 10.0 mi WNW 11.5 mph - N/A   Overcast
6:15 AM 3.2 °F -12.2 °F -0.4 °F 85% 30.21 in 10.0 mi WNW 10.4 mph - N/A   Scattered Clouds
6:35 AM 1.4 °F -13.5 °F -2.2 °F 85% 30.21 in 10.0 mi NW 9.2 mph - N/A   Clear
6:55 AM 1.4 °F -11.3 °F -2.2 °F 85% 30.21 in 10.0 mi WNW 6.9 mph - N/A   Clear
7:35 AM -0.4 °F -12.0 °F -4.0 °F 85% 30.21 in 10.0 mi WNW 5.8 mph - N/A   Clear
7:55 AM -0.4 °F -12.0 °F -4.0 °F 85% 30.22 in 10.0 mi West 5.8 mph - N/A   Clear
8:15 AM -0.4 °F -12.0 °F -5.8 °F 78% 30.22 in 10.0 mi WNW 5.8 mph - N/A   Clear
8:35 AM -2.2 °F -14.2 °F -5.8 °F 85% 30.22 in 10.0 mi West 5.8 mph - N/A   Clear
8:55 AM -0.4 °F -12.0 °F -4.0 °F 85% 30.24 in 10.0 mi WNW 5.8 mph - N/A   Clear
9:15 AM 1.4 °F -9.9 °F -4.0 °F 78% 30.23 in 10.0 mi West 5.8 mph - N/A   Clear
9:35 AM 1.4 °F -12.5 °F -4.0 °F 78% 30.24 in 10.0 mi WNW 8.1 mph - N/A   Clear
9:55 AM 3.2 °F -10.3 °F -2.2 °F 78% 30.24 in 10.0 mi WNW 8.1 mph - N/A   Clear
10:15 AM 3.2 °F -7.8 °F -0.4 °F 85% 30.24 in 10.0 mi West 5.8 mph - N/A   Clear
10:35 AM 5.0 °F -8.1 °F -0.4 °F 78% 30.24 in 10.0 mi WNW 8.1 mph - N/A   Clear
10:55 AM 6.8 °F -5.9 °F 1.4 °F 79% 30.24 in 10.0 mi WNW 8.1 mph - N/A   Clear
11:15 AM 8.6 °F -4.7 °F 1.4 °F 73% 30.23 in 10.0 mi WNW 9.2 mph - N/A   Clear
11:35 AM 8.6 °F -4.7 °F 3.2 °F 79% 30.22 in 10.0 mi West 9.2 mph - N/A   Clear
11:55 AM 10.4 °F -2.4 °F 3.2 °F 73% 30.22 in 10.0 mi West 9.2 mph - N/A   Clear
12:15 PM 10.4 °F -0.4 °F 3.2 °F 73% 30.21 in 10.0 mi West 6.9 mph - N/A   Clear
12:35 PM 12.2 °F -0.2 °F 5.0 °F 73% 30.20 in 10.0 mi West 9.2 mph - N/A   Clear
12:55 PM 12.2 °F 0.7 °F 5.0 °F 73% 30.19 in 10.0 mi WSW 8.1 mph - N/A   Clear
1:15 PM 12.2 °F -0.2 °F 5.0 °F 73% 30.19 in 10.0 mi WSW 9.2 mph - N/A   Clear
1:35 PM 12.2 °F -0.2 °F 6.8 °F 79% 30.18 in 10.0 mi WSW 9.2 mph - N/A   Scattered Clouds
1:55 PM 14.0 °F 1.2 °F 6.8 °F 73% 30.17 in 10.0 mi West 10.4 mph - N/A   Scattered Clouds
2:15 PM 12.2 °F -0.2 °F 6.8 °F 79% 30.17 in 10.0 mi West 9.2 mph - N/A   Scattered Clouds
2:35 PM 12.2 °F -0.2 °F 6.8 °F 79% 30.17 in 10.0 mi WSW 9.2 mph - N/A   Overcast
2:55 PM 12.2 °F 2.9 °F 8.6 °F 85% 30.17 in 10.0 mi WSW 5.8 mph - N/A   Overcast
3:15 PM 14.0 °F 2.0 °F 8.6 °F 79% 30.17 in 10.0 mi SW 9.2 mph - N/A   Overcast
3:35 PM 12.2 °F -0.2 °F 8.6 °F 85% 30.17 in 10.0 mi SW 9.2 mph - N/A   Overcast
3:55 PM 14.0 °F 1.2 °F 8.6 °F 79% 30.17 in 10.0 mi SW 10.4 mph - N/A   Overcast
4:15 PM 12.2 °F 2.9 °F 6.8 °F 79% 30.17 in 10.0 mi SW 5.8 mph - N/A   Scattered Clouds
4:35 PM 10.4 °F 0.8 °F 5.0 °F 79% 30.17 in 10.0 mi SW 5.8 mph - N/A   Clear
4:55 PM 8.6 °F 0.1 °F 5.0 °F 85% 30.16 in 10.0 mi SW 4.6 mph - N/A   Clear
5:15 PM 8.6 °F 2.0 °F 5.0 °F 85% 30.15 in 10.0 mi SSW 3.5 mph - N/A   Clear
5:35 PM 6.8 °F -4.8 °F 3.2 °F 85% 30.14 in 10.0 mi SSW 6.9 mph - N/A   Clear
5:55 PM 6.8 °F -5.9 °F 3.2 °F 85% 30.13 in 10.0 mi SSW 8.1 mph - N/A   Clear
6:15 PM 8.6 °F -2.6 °F 5.0 °F 85% 30.11 in 10.0 mi SSW 6.9 mph - N/A   Clear
6:35 PM 8.6 °F -2.6 °F 6.8 °F 92% 30.10 in 10.0 mi SSW 6.9 mph - N/A   Clear
6:55 PM 10.4 °F -2.4 °F 8.6 °F 92% 30.09 in 10.0 mi SW 9.2 mph - N/A   Clear
7:15 PM 12.2 °F 0.7 °F 8.6 °F 85% 30.09 in 10.0 mi SW 8.1 mph - N/A   Clear
7:35 PM 12.2 °F -1.0 °F 8.6 °F 85% 30.08 in 10.0 mi SW 10.4 mph - N/A   Clear
7:55 PM 12.2 °F -1.0 °F 8.6 °F 85% 30.08 in 10.0 mi SW 10.4 mph - N/A   Clear
8:15 PM 12.2 °F -0.2 °F 8.6 °F 85% 30.06 in 10.0 mi SW 9.2 mph - N/A   Clear
8:35 PM 12.2 °F -0.2 °F 8.6 °F 85% 30.06 in 10.0 mi SW 9.2 mph - N/A   Clear
8:55 PM 12.2 °F -1.0 °F 10.4 °F 92% 30.05 in 10.0 mi SW 10.4 mph - N/A   Clear
9:15 PM 12.2 °F 0.7 °F 8.6 °F 85% 30.05 in 10.0 mi SW 8.1 mph - N/A   Clear
9:35 PM 12.2 °F -0.2 °F 8.6 °F 85% 30.04 in 10.0 mi SSW 9.2 mph - N/A   Clear
9:55 PM 12.2 °F -0.2 °F 10.4 °F 92% 30.03 in 10.0 mi SW 9.2 mph - N/A   Clear
10:15 PM 12.2 °F -1.0 °F 10.4 °F 92% 30.02 in 10.0 mi SW 10.4 mph - N/A   Clear
10:35 PM 12.2 °F -1.0 °F 10.4 °F 92% 30.00 in 10.0 mi SW 10.4 mph - N/A   Clear
10:55 PM 14.0 °F 3.9 °F 10.4 °F 86% 30.01 in 10.0 mi WSW 6.9 mph 16.1 mph N/A   Clear
11:15 PM 14.0 °F 1.2 °F 10.4 °F 86% 30.01 in 10.0 mi SW 10.4 mph - N/A   Clear
11:35 PM 12.2 °F -1.0 °F 10.4 °F 92% 30.00 in 10.0 mi SW 10.4 mph - N/A   Clear
11:55 PM 14.0 °F 2.0 °F 10.4 °F 86% 29.99 in 10.0 mi SW 9.2 mph - N/A   Clear